Time,TemperatureF,DewpointF,PressureIn,WindDirection,WindDirectionDegrees,WindSpeedMPH,WindSpeedGustMPH,Humidity,HourlyPrecipIn,Conditions,Clouds,dailyrainin,SoftwareType,DateUTC
2013-09-13 00:01:00,74.3,33.0,29.93,SE,124,2.7,3.6,22,0.00,,---,0.00,VWS V14.01,2013-09-13 06:01:00,
2013-09-13 00:06:00,73.6,32.4,29.93,ESE,116,0.0,3.6,22,0.00,,---,0.00,VWS V14.01,2013-09-13 06:06:00,
2013-09-13 00:11:00,72.7,32.8,29.93,East,89,0.0,3.6,23,0.00,,---,0.00,VWS V14.01,2013-09-13 06:11:00,
2013-09-13 00:16:00,71.8,32.0,29.93,East,99,0.0,0.0,23,0.00,,---,0.00,VWS V14.01,2013-09-13 06:16:00,
2013-09-13 00:21:00,71.1,32.5,29.93,East,99,0.0,0.0,24,0.00,,---,0.00,VWS V14.01,2013-09-13 06:21:00,
2013-09-13 00:26:00,70.3,31.9,29.93,East,99,0.0,0.0,24,0.00,,---,0.00,VWS V14.01,2013-09-13 06:26:00,
2013-09-13 00:31:00,69.8,32.4,29.93,East,99,0.0,0.0,25,0.00,,---,0.00,VWS V14.01,2013-09-13 06:31:00,
2013-09-13 00:36:00,69.4,32.1,29.93,East,99,0.0,0.0,25,0.00,,---,0.00,VWS V14.01,2013-09-13 06:36:00,
2013-09-13 00:41:00,69.1,32.8,29.93,ESE,106,0.0,0.0,26,0.00,,---,0.00,VWS V14.01,2013-09-13 06:41:00,
2013-09-13 00:46:00,68.9,32.6,29.93,ESE,106,0.0,0.0,26,0.00,,---,0.00,VWS V14.01,2013-09-13 06:46:00,
2013-09-13 00:51:00,68.9,32.6,29.93,ESE,106,0.0,0.0,26,0.00,,---,0.00,VWS V14.01,2013-09-13 06:51:00,
2013-09-13 00:56:00,68.7,33.4,29.93,ESE,106,0.0,0.0,27,0.00,,---,0.00,VWS V14.01,2013-09-13 06:56:00,
2013-09-13 01:01:00,68.7,33.4,29.93,ESE,113,0.0,0.0,27,0.00,,---,0.00,VWS V14.01,2013-09-13 07:01:00,
2013-09-13 01:06:00,68.7,33.4,29.93,ESE,113,0.0,0.0,27,0.00,,---,0.00,VWS V14.01,2013-09-13 07:06:00,
2013-09-13 01:11:00,68.4,34.0,29.93,ESE,113,0.0,0.0,28,0.00,,---,0.00,VWS V14.01,2013-09-13 07:11:00,
2013-09-13 01:16:00,68.2,33.9,29.93,ESE,113,0.0,0.0,28,0.00,,---,0.00,VWS V14.01,2013-09-13 07:16:00,
2013-09-13 01:21:00,67.8,34.4,29.93,ESE,113,0.0,0.0,29,0.00,,---,0.00,VWS V14.01,2013-09-13 07:21:00,
2013-09-13 01:26:00,67.6,35.1,29.93,ESE,113,0.0,0.0,30,0.00,,---,0.00,VWS V14.01,2013-09-13 07:26:00,
2013-09-13 01:31:00,67.3,34.8,29.93,ESE,113,0.0,0.0,30,0.00,,---,0.00,VWS V14.01,2013-09-13 07:31:00,
2013-09-13 01:36:00,67.5,34.1,29.93,WSW,250,0.0,0.0,29,0.00,,---,0.00,VWS V14.01,2013-09-13 07:36:00,
2013-09-13 01:41:00,67.1,34.7,29.93,WSW,250,0.0,0.0,30,0.00,,---,0.00,VWS V14.01,2013-09-13 07:41:00,
2013-09-13 01:46:00,66.9,34.5,29.93,WSW,250,0.0,0.0,30,0.00,,---,0.00,VWS V14.01,2013-09-13 07:46:00,
2013-09-13 01:51:00,66.6,35.0,29.93,WSW,250,0.0,0.0,31,0.00,,---,0.00,VWS V14.01,2013-09-13 07:51:00,
2013-09-13 01:56:00,66.6,35.0,29.93,WSW,250,0.0,0.0,31,0.00,,---,0.00,VWS V14.01,2013-09-13 07:56:00,
2013-09-13 02:01:00,66.4,34.9,29.93,WSW,250,0.0,0.0,31,0.00,,---,0.00,VWS V14.01,2013-09-13 08:01:00,
2013-09-13 02:06:00,66.2,35.5,29.93,WSW,250,0.0,0.0,32,0.00,,---,0.00,VWS V14.01,2013-09-13 08:06:00,
2013-09-13 02:11:00,65.7,35.8,29.93,WSW,250,0.0,0.0,33,0.00,,---,0.00,VWS V14.01,2013-09-13 08:11:00,
2013-09-13 02:16:00,65.3,35.5,29.93,WSW,250,0.0,0.0,33,0.00,,---,0.00,VWS V14.01,2013-09-13 08:16:00,
2013-09-13 02:21:00,64.8,35.0,29.93,WSW,250,0.0,0.0,33,0.00,,---,0.00,VWS V14.01,2013-09-13 08:21:00,
2013-09-13 02:26:00,64.4,34.7,29.93,WSW,250,0.0,0.0,33,0.00,,---,0.00,VWS V14.01,2013-09-13 08:26:00,
2013-09-13 02:31:00,64.2,35.3,29.93,WSW,250,0.0,0.0,34,0.00,,---,0.00,VWS V14.01,2013-09-13 08:31:00,
2013-09-13 02:36:00,64.2,35.3,29.93,WSW,250,0.0,0.0,34,0.00,,---,0.00,VWS V14.01,2013-09-13 08:36:00,
2013-09-13 02:41:00,63.9,35.0,29.93,WSW,250,0.0,0.0,34,0.00,,---,0.00,VWS V14.01,2013-09-13 08:41:00,
2013-09-13 02:46:00,63.9,35.7,29.93,WSW,250,0.0,0.0,35,0.00,,---,0.00,VWS V14.01,2013-09-13 08:46:00,
2013-09-13 02:51:00,63.9,35.7,29.93,WSW,250,0.0,0.0,35,0.00,,---,0.00,VWS V14.01,2013-09-13 08:51:00,
2013-09-13 02:56:00,64.0,35.9,29.93,WSW,250,0.0,0.0,35,0.00,,---,0.00,VWS V14.01,2013-09-13 08:56:00,
2013-09-13 03:01:00,64.0,35.9,29.93,WSW,250,0.0,0.0,35,0.00,,---,0.00,VWS V14.01,2013-09-13 09:01:00,
2013-09-13 03:06:00,64.0,35.9,29.93,WSW,250,0.0,0.0,35,0.00,,---,0.00,VWS V14.01,2013-09-13 09:06:00,
2013-09-13 03:11:00,64.2,36.0,29.93,WSW,250,0.0,0.0,35,0.00,,---,0.00,VWS V14.01,2013-09-13 09:11:00,
2013-09-13 03:16:00,64.2,36.0,29.93,WSW,250,0.0,0.0,35,0.00,,---,0.00,VWS V14.01,2013-09-13 09:16:00,
2013-09-13 03:21:00,64.2,36.0,29.93,WSW,250,0.0,0.0,35,0.00,,---,0.00,VWS V14.01,2013-09-13 09:21:00,
2013-09-13 03:26:00,64.0,35.9,29.93,WSW,250,0.0,0.0,35,0.00,,---,0.00,VWS V14.01,2013-09-13 09:26:00,
2013-09-13 03:31:00,63.3,35.2,29.93,WSW,250,0.0,0.0,35,0.00,,---,0.00,VWS V14.01,2013-09-13 09:31:00,
2013-09-13 03:36:00,62.8,34.8,29.91,WSW,250,0.0,0.0,35,0.00,,---,0.00,VWS V14.01,2013-09-13 09:36:00,
2013-09-13 03:41:00,62.4,35.1,29.91,WSW,250,0.0,0.0,36,0.00,,---,0.00,VWS V14.01,2013-09-13 09:41:00,
2013-09-13 03:46:00,62.2,35.0,29.91,WSW,250,0.0,0.0,36,0.00,,---,0.00,VWS V14.01,2013-09-13 09:46:00,
2013-09-13 03:51:00,61.9,35.3,29.93,WSW,250,0.0,0.0,37,0.00,,---,0.00,VWS V14.01,2013-09-13 09:51:00,
2013-09-13 03:56:00,62.4,35.8,29.93,WSW,254,0.0,2.7,37,0.00,,---,0.00,VWS V14.01,2013-09-13 09:56:00,
2013-09-13 04:01:00,62.4,35.8,29.93,WSW,254,0.0,0.0,37,0.00,,---,0.00,VWS V14.01,2013-09-13 10:01:00,
2013-09-13 04:06:00,62.4,35.8,29.91,WSW,254,0.0,0.0,37,0.00,,---,0.00,VWS V14.01,2013-09-13 10:06:00,
2013-09-13 04:11:00,62.2,35.7,29.91,SW,230,0.0,0.0,37,0.00,,---,0.00,VWS V14.01,2013-09-13 10:11:00,
2013-09-13 04:16:00,62.4,35.8,29.91,SW,230,0.0,0.0,37,0.00,,---,0.00,VWS V14.01,2013-09-13 10:16:00,
2013-09-13 04:21:00,62.4,35.8,29.93,SW,230,0.0,0.0,37,0.00,,---,0.00,VWS V14.01,2013-09-13 10:21:00,
2013-09-13 04:26:00,62.1,35.5,29.93,SW,230,0.0,0.0,37,0.00,,---,0.00,VWS V14.01,2013-09-13 10:26:00,
2013-09-13 04:31:00,61.3,34.9,29.93,SW,230,0.0,0.0,37,0.00,,---,0.00,VWS V14.01,2013-09-13 10:31:00,
2013-09-13 04:36:00,61.0,35.2,29.93,SW,230,0.0,0.0,38,0.00,,---,0.00,VWS V14.01,2013-09-13 10:36:00,
2013-09-13 04:41:00,60.3,35.2,29.93,SW,230,0.0,0.0,39,0.00,,---,0.00,VWS V14.01,2013-09-13 10:41:00,
2013-09-13 04:46:00,59.7,34.7,29.93,SW,230,0.0,0.0,39,0.00,,---,0.00,VWS V14.01,2013-09-13 10:46:00,
2013-09-13 04:51:00,59.4,35.1,29.93,SW,230,0.0,0.0,40,0.00,,---,0.00,VWS V14.01,2013-09-13 10:51:00,
2013-09-13 04:56:00,59.2,34.9,29.93,SW,230,0.0,0.0,40,0.00,,---,0.00,VWS V14.01,2013-09-13 10:56:00,
2013-09-13 05:01:00,59.0,35.3,29.93,SW,230,0.0,0.0,41,0.00,,---,0.00,VWS V14.01,2013-09-13 11:01:00,
2013-09-13 05:06:00,59.0,36.0,29.93,SW,230,0.0,0.0,42,0.00,,---,0.00,VWS V14.01,2013-09-13 11:06:00,
2013-09-13 05:11:00,59.0,36.6,29.93,SW,230,0.0,0.0,43,0.00,,---,0.00,VWS V14.01,2013-09-13 11:11:00,
2013-09-13 05:16:00,59.0,36.6,29.93,SW,233,0.0,0.0,43,0.00,,---,0.00,VWS V14.01,2013-09-13 11:16:00,
2013-09-13 05:21:00,59.0,36.0,29.93,SW,233,0.0,0.0,42,0.00,,---,0.00,VWS V14.01,2013-09-13 11:21:00,
2013-09-13 05:26:00,59.2,36.7,29.93,WSW,251,0.0,0.0,43,0.00,,---,0.00,VWS V14.01,2013-09-13 11:26:00,
2013-09-13 05:31:00,59.5,37.0,29.93,West,262,0.0,0.0,43,0.00,,---,0.00,VWS V14.01,2013-09-13 11:31:00,
2013-09-13 05:36:00,59.9,37.4,29.93,West,262,0.0,0.0,43,0.00,,---,0.00,VWS V14.01,2013-09-13 11:36:00,
2013-09-13 05:41:00,59.7,37.2,29.93,West,262,0.0,0.0,43,0.00,,---,0.00,VWS V14.01,2013-09-13 11:41:00,
2013-09-13 05:46:00,59.7,37.2,29.93,West,265,0.0,0.0,43,0.00,,---,0.00,VWS V14.01,2013-09-13 11:46:00,
2013-09-13 05:51:00,59.4,37.5,29.93,West,265,0.0,0.0,44,0.00,,---,0.00,VWS V14.01,2013-09-13 11:51:00,
2013-09-13 05:56:00,58.8,37.0,29.93,West,265,0.0,0.0,44,0.00,,---,0.00,VWS V14.01,2013-09-13 11:56:00,
2013-09-13 06:01:00,58.5,37.2,29.93,West,265,0.0,0.0,45,0.00,,---,0.00,VWS V14.01,2013-09-13 12:01:00,
2013-09-13 06:06:00,58.3,37.0,29.93,West,265,0.0,0.0,45,0.00,,---,0.00,VWS V14.01,2013-09-13 12:06:00,
2013-09-13 06:11:00,58.3,37.0,29.93,West,265,0.0,0.0,45,0.00,,---,0.00,VWS V14.01,2013-09-13 12:11:00,
2013-09-13 06:16:00,58.1,37.5,29.93,West,265,0.0,0.0,46,0.00,,---,0.00,VWS V14.01,2013-09-13 12:16:00,
2013-09-13 06:21:00,57.9,37.3,29.93,West,265,0.0,0.0,46,0.00,,---,0.00,VWS V14.01,2013-09-13 12:21:00,
2013-09-13 06:26:00,57.7,37.1,29.93,West,265,0.0,0.0,46,0.00,,---,0.00,VWS V14.01,2013-09-13 12:26:00,
2013-09-13 06:31:00,57.4,36.8,29.93,West,265,0.0,0.0,46,0.00,,---,0.00,VWS V14.01,2013-09-13 12:31:00,
2013-09-13 06:36:00,57.2,37.2,29.93,West,265,0.0,0.0,47,0.00,,---,0.00,VWS V14.01,2013-09-13 12:36:00,
2013-09-13 06:41:00,57.0,37.0,29.93,West,265,0.0,0.0,47,0.00,,---,0.00,VWS V14.01,2013-09-13 12:41:00,
2013-09-13 06:46:00,56.7,36.7,29.93,West,265,0.0,0.0,47,0.00,,---,0.00,VWS V14.01,2013-09-13 12:46:00,
2013-09-13 06:51:00,56.7,37.2,29.93,West,265,0.0,0.0,48,0.00,,---,0.00,VWS V14.01,2013-09-13 12:51:00,
2013-09-13 06:56:00,56.7,37.2,29.93,West,265,0.0,0.0,48,0.00,,---,0.00,VWS V14.01,2013-09-13 12:56:00,
2013-09-13 07:01:00,56.3,36.9,29.93,West,265,0.0,0.0,48,0.00,,---,0.00,VWS V14.01,2013-09-13 13:01:00,
2013-09-13 07:05:00,56.1,36.7,29.93,West,265,0.0,0.0,48,0.00,,---,0.00,VWS V14.01,2013-09-13 13:05:00,
2013-09-13 07:10:00,56.1,36.7,29.93,West,265,0.0,0.0,48,0.00,,---,0.00,VWS V14.01,2013-09-13 13:10:00,
2013-09-13 07:15:00,56.3,37.4,29.93,West,265,0.0,0.0,49,0.00,,---,0.00,VWS V14.01,2013-09-13 13:15:00,
2013-09-13 07:20:00,56.5,37.6,29.93,West,265,0.0,0.0,49,0.00,,---,0.00,VWS V14.01,2013-09-13 13:20:00,
2013-09-13 07:25:00,56.8,37.9,29.93,West,265,0.0,0.0,49,0.00,,---,0.00,VWS V14.01,2013-09-13 13:25:00,
2013-09-13 07:30:00,57.0,38.1,29.93,West,265,0.0,0.0,49,0.00,,---,0.00,VWS V14.01,2013-09-13 13:30:00,
2013-09-13 07:35:00,57.4,37.9,29.93,West,265,0.0,0.0,48,0.00,,---,0.00,VWS V14.01,2013-09-13 13:35:00,
2013-09-13 07:40:00,57.9,38.4,29.93,West,265,0.0,0.0,48,0.00,,---,0.00,VWS V14.01,2013-09-13 13:40:00,
2013-09-13 07:45:00,58.3,38.7,29.93,West,265,0.0,0.0,48,0.00,,---,0.00,VWS V14.01,2013-09-13 13:45:00,
2013-09-13 07:50:00,58.6,39.0,29.93,West,265,0.0,0.0,48,0.00,,---,0.00,VWS V14.01,2013-09-13 13:50:00,
2013-09-13 07:55:00,59.0,38.8,29.93,West,265,0.0,0.0,47,0.00,,---,0.00,VWS V14.01,2013-09-13 13:55:00,
2013-09-13 08:00:00,59.2,39.0,29.93,WSW,251,0.0,0.0,47,0.00,,---,0.00,VWS V14.01,2013-09-13 14:00:00,
2013-09-13 08:05:00,59.4,39.2,29.93,WSW,251,0.0,0.0,47,0.00,,---,0.00,VWS V14.01,2013-09-13 14:05:00,
2013-09-13 08:10:00,59.7,39.5,29.93,WSW,251,0.0,0.0,47,0.00,,---,0.00,VWS V14.01,2013-09-13 14:10:00,
2013-09-13 08:15:00,60.1,39.8,29.93,WSW,251,0.0,0.0,47,0.00,,---,0.00,VWS V14.01,2013-09-13 14:15:00,
2013-09-13 08:20:00,60.4,40.1,29.93,WSW,251,0.0,0.0,47,0.00,,---,0.00,VWS V14.01,2013-09-13 14:20:00,
2013-09-13 08:25:00,60.6,40.3,29.93,WSW,251,0.0,0.0,47,0.00,,---,0.00,VWS V14.01,2013-09-13 14:25:00,
2013-09-13 08:30:00,60.6,40.3,29.93,WSW,251,0.0,0.0,47,0.00,,---,0.00,VWS V14.01,2013-09-13 14:30:00,
2013-09-13 08:35:00,60.8,39.9,29.93,WSW,251,0.0,0.0,46,0.00,,---,0.00,VWS V14.01,2013-09-13 14:35:00,
2013-09-13 08:40:00,61.2,40.2,29.93,WSW,251,0.0,0.0,46,0.00,,---,0.00,VWS V14.01,2013-09-13 14:40:00,
2013-09-13 08:45:00,61.7,40.7,29.93,WSW,251,0.0,0.0,46,0.00,,---,0.00,VWS V14.01,2013-09-13 14:45:00,
2013-09-13 08:50:00,62.4,41.4,29.93,WSW,251,0.0,0.0,46,0.00,,---,0.00,VWS V14.01,2013-09-13 14:50:00,
2013-09-13 08:55:00,62.6,41.0,29.93,WSW,251,0.0,0.0,45,0.00,,---,0.00,VWS V14.01,2013-09-13 14:55:00,
2013-09-13 09:00:00,63.0,40.7,29.93,WSW,251,0.0,0.0,44,0.00,,---,0.00,VWS V14.01,2013-09-13 15:00:00,
2013-09-13 09:05:00,63.1,40.9,29.93,WSW,251,0.0,0.0,44,0.00,,---,0.00,VWS V14.01,2013-09-13 15:05:00,
2013-09-13 09:10:00,63.3,41.1,29.93,WSW,251,0.0,0.0,44,0.00,,---,0.00,VWS V14.01,2013-09-13 15:10:00,
2013-09-13 09:15:00,63.9,41.5,29.93,WSW,251,0.0,0.0,44,0.00,,---,0.00,VWS V14.01,2013-09-13 15:15:00,
2013-09-13 09:20:00,64.6,41.6,29.91,WSW,251,0.0,0.0,43,0.00,,---,0.00,VWS V14.01,2013-09-13 15:20:00,
2013-09-13 09:25:00,65.5,41.2,29.91,WSW,256,0.0,0.0,41,0.00,,---,0.00,VWS V14.01,2013-09-13 15:25:00,
2013-09-13 09:30:00,66.4,40.7,29.91,NNE,33,0.0,0.0,39,0.00,,---,0.00,VWS V14.01,2013-09-13 15:30:00,
2013-09-13 09:35:00,67.1,39.3,29.93,NNE,31,0.0,0.0,36,0.00,,---,0.00,VWS V14.01,2013-09-13 15:35:00,
2013-09-13 09:40:00,67.3,38.0,29.93,North,10,0.0,2.2,34,0.00,,---,0.00,VWS V14.01,2013-09-13 15:40:00,
2013-09-13 09:45:00,67.3,37.2,29.93,ENE,60,0.0,0.0,33,0.00,,---,0.00,VWS V14.01,2013-09-13 15:45:00,
2013-09-13 09:50:00,67.6,38.3,29.93,ENE,60,0.0,0.0,34,0.00,,---,0.00,VWS V14.01,2013-09-13 15:50:00,
2013-09-13 09:55:00,69.6,38.5,29.93,North,8,0.0,0.0,32,0.00,,---,0.00,VWS V14.01,2013-09-13 15:55:00,
2013-09-13 10:00:00,71.6,39.4,29.93,NE,52,2.7,2.7,31,0.00,,---,0.00,VWS V14.01,2013-09-13 16:00:00,
2013-09-13 10:05:00,74.1,39.0,29.93,ENE,62,0.0,3.1,28,0.00,,---,0.00,VWS V14.01,2013-09-13 16:05:00,
2013-09-13 10:10:00,75.7,37.5,29.91,NNE,16,0.0,3.1,25,0.00,,---,0.00,VWS V14.01,2013-09-13 16:10:00,
2013-09-13 10:15:00,77.2,38.7,29.91,East,96,2.2,3.6,25,0.00,,---,0.00,VWS V14.01,2013-09-13 16:15:00,
2013-09-13 10:20:00,78.3,38.5,29.91,ESE,104,2.7,3.6,24,0.00,,---,0.00,VWS V14.01,2013-09-13 16:20:00,
2013-09-13 10:25:00,79.3,37.2,29.91,ENE,60,4.5,4.9,22,0.00,,---,0.00,VWS V14.01,2013-09-13 16:25:00,
2013-09-13 10:30:00,80.1,37.8,29.91,ENE,78,3.6,3.6,22,0.00,,---,0.00,VWS V14.01,2013-09-13 16:30:00,
2013-09-13 10:35:00,80.2,38.0,29.91,ENE,61,3.1,3.6,22,0.00,,---,0.00,VWS V14.01,2013-09-13 16:35:00,
2013-09-13 10:40:00,80.4,37.0,29.91,East,89,0.0,4.0,21,0.00,,---,0.00,VWS V14.01,2013-09-13 16:40:00,
2013-09-13 10:45:00,80.4,37.0,29.91,East,83,3.6,3.6,21,0.00,,---,0.00,VWS V14.01,2013-09-13 16:45:00,
2013-09-13 10:50:00,81.1,37.5,29.91,East,93,0.0,4.0,21,0.00,,---,0.00,VWS V14.01,2013-09-13 16:50:00,
2013-09-13 10:55:00,82.2,38.4,29.91,South,169,4.0,4.0,21,0.00,,---,0.00,VWS V14.01,2013-09-13 16:55:00,
2013-09-13 11:00:00,82.6,37.5,29.91,ESE,111,2.7,2.7,20,0.00,,---,0.00,VWS V14.01,2013-09-13 17:00:00,
2013-09-13 11:05:00,83.7,38.4,29.91,ENE,78,2.7,3.1,20,0.00,,---,0.00,VWS V14.01,2013-09-13 17:05:00,
2013-09-13 11:10:00,83.7,38.4,29.91,East,100,4.9,4.9,20,0.00,,---,0.00,VWS V14.01,2013-09-13 17:10:00,
2013-09-13 11:15:00,81.3,36.5,29.91,ENE,72,2.7,2.7,20,0.00,,---,0.00,VWS V14.01,2013-09-13 17:15:00,
2013-09-13 11:20:00,80.4,37.0,29.91,East,88,0.0,3.6,21,0.00,,---,0.00,VWS V14.01,2013-09-13 17:20:00,
2013-09-13 11:25:00,79.9,36.5,29.91,East,85,0.0,3.6,21,0.00,,---,0.00,VWS V14.01,2013-09-13 17:25:00,
2013-09-13 11:30:00,80.2,36.8,29.91,ENE,73,0.0,0.0,21,0.00,,---,0.00,VWS V14.01,2013-09-13 17:30:00,
2013-09-13 11:35:00,82.8,38.9,29.91,ENE,70,3.1,3.1,21,0.00,,---,0.00,VWS V14.01,2013-09-13 17:35:00,
2013-09-13 11:40:00,84.9,39.4,29.88,ENE,70,4.0,4.0,20,0.00,,---,0.00,VWS V14.01,2013-09-13 17:40:00,
2013-09-13 11:45:00,84.7,38.0,29.88,ENE,78,0.0,0.0,19,0.00,,---,0.00,VWS V14.01,2013-09-13 17:45:00,
2013-09-13 11:50:00,85.3,38.4,29.88,SE,124,2.7,4.0,19,0.00,,---,0.00,VWS V14.01,2013-09-13 17:50:00,
2013-09-13 11:55:00,86.0,39.0,29.88,East,97,2.7,4.0,19,0.00,,---,0.00,VWS V14.01,2013-09-13 17:55:00,
2013-09-13 12:00:00,86.9,39.7,29.88,SE,131,3.6,3.6,19,0.00,,---,0.00,VWS V14.01,2013-09-13 18:00:00,
2013-09-13 12:05:00,87.4,40.2,29.88,East,101,2.2,4.0,19,0.00,,---,0.00,VWS V14.01,2013-09-13 18:05:00,
2013-09-13 12:10:00,87.8,39.1,29.88,SE,129,3.6,5.4,18,0.00,,---,0.00,VWS V14.01,2013-09-13 18:10:00,
2013-09-13 12:15:00,87.6,38.9,29.88,East,93,5.4,5.8,18,0.00,,---,0.00,VWS V14.01,2013-09-13 18:15:00,
2013-09-13 12:20:00,87.1,38.5,29.88,ENE,60,3.6,6.3,18,0.00,,---,0.00,VWS V14.01,2013-09-13 18:20:00,
2013-09-13 12:25:00,87.6,38.9,29.88,ESE,121,3.6,6.3,18,0.00,,---,0.00,VWS V14.01,2013-09-13 18:25:00,
2013-09-13 12:30:00,87.6,38.9,29.88,ENE,77,4.0,5.8,18,0.00,,---,0.00,VWS V14.01,2013-09-13 18:30:00,
2013-09-13 12:35:00,87.6,38.9,29.88,ESE,116,4.0,5.8,18,0.00,,---,0.00,VWS V14.01,2013-09-13 18:35:00,
2013-09-13 12:40:00,88.2,39.4,29.88,South,174,3.6,6.3,18,0.00,,---,0.00,VWS V14.01,2013-09-13 18:40:00,
2013-09-13 12:45:00,88.3,39.5,29.88,SE,127,5.4,6.3,18,0.00,,---,0.00,VWS V14.01,2013-09-13 18:45:00,
2013-09-13 12:50:00,88.2,34.7,29.88,ENE,69,3.1,6.3,15,0.00,,---,0.00,VWS V14.01,2013-09-13 18:50:00,
2013-09-13 12:55:00,88.7,39.8,29.85,East,79,4.9,6.3,18,0.00,,---,0.00,VWS V14.01,2013-09-13 18:55:00,
2013-09-13 13:00:00,89.2,35.6,29.85,East,99,5.8,7.2,15,0.00,,---,0.00,VWS V14.01,2013-09-13 19:00:00,
2013-09-13 13:05:00,89.2,35.6,29.85,ESE,122,2.7,7.2,15,0.00,,---,0.00,VWS V14.01,2013-09-13 19:05:00,
2013-09-13 13:10:00,89.8,36.0,29.85,East,82,3.6,7.2,15,0.00,,---,0.00,VWS V14.01,2013-09-13 19:10:00,
2013-09-13 13:15:00,90.0,36.2,29.85,NNE,13,0.0,0.0,15,0.00,,---,0.00,VWS V14.01,2013-09-13 19:15:00,
2013-09-13 13:20:00,91.0,37.0,29.85,ENE,57,0.0,4.0,15,0.00,,---,0.00,VWS V14.01,2013-09-13 19:20:00,
2013-09-13 13:25:00,91.0,37.0,29.85,NE,45,2.7,4.0,15,0.00,,---,0.00,VWS V14.01,2013-09-13 19:25:00,
2013-09-13 13:30:00,91.6,35.7,29.85,NE,50,0.0,3.1,14,0.00,,---,0.00,VWS V14.01,2013-09-13 19:30:00,
2013-09-13 13:35:00,91.8,35.8,29.85,East,86,3.6,5.4,14,0.00,,---,0.00,VWS V14.01,2013-09-13 19:35:00,
2013-09-13 13:40:00,91.9,36.0,29.85,East,82,3.1,5.4,14,0.00,,---,0.00,VWS V14.01,2013-09-13 19:40:00,
2013-09-13 13:45:00,92.3,36.3,29.85,East,91,0.0,0.0,14,0.00,,---,0.00,VWS V14.01,2013-09-13 19:45:00,
2013-09-13 13:50:00,93.4,37.1,29.85,East,91,2.2,2.2,14,0.00,,---,0.00,VWS V14.01,2013-09-13 19:50:00,
2013-09-13 13:55:00,93.6,37.3,29.85,ENE,57,3.6,4.9,14,0.00,,---,0.00,VWS V14.01,2013-09-13 19:55:00,
2013-09-13 14:00:00,92.7,36.5,29.85,ENE,62,2.2,2.2,14,0.00,,---,0.00,VWS V14.01,2013-09-13 20:00:00,
2013-09-13 14:05:00,93.0,36.8,29.82,NE,44,3.1,4.0,14,0.00,,---,0.00,VWS V14.01,2013-09-13 20:05:00,
2013-09-13 14:10:00,93.2,37.0,29.82,ENE,57,4.0,4.9,14,0.00,,---,0.00,VWS V14.01,2013-09-13 20:10:00,
2013-09-13 14:15:00,93.4,37.1,29.82,ENE,68,5.8,5.8,14,0.00,,---,0.00,VWS V14.01,2013-09-13 20:15:00,
2013-09-13 14:20:00,93.0,33.0,29.82,ENE,64,2.2,6.3,12,0.00,,---,0.00,VWS V14.01,2013-09-13 20:20:00,
2013-09-13 14:25:00,93.2,37.0,29.82,NNW,342,0.0,6.3,14,0.00,,---,0.00,VWS V14.01,2013-09-13 20:25:00,
2013-09-13 14:30:00,92.7,36.5,29.82,NW,307,3.6,4.0,14,0.00,,---,0.00,VWS V14.01,2013-09-13 20:30:00,
2013-09-13 14:35:00,92.7,32.7,29.82,West,264,0.0,6.3,12,0.00,,---,0.00,VWS V14.01,2013-09-13 20:35:00,
2013-09-13 14:40:00,92.5,32.5,29.82,ENE,77,0.0,6.3,12,0.00,,---,0.00,VWS V14.01,2013-09-13 20:40:00,
2013-09-13 14:45:00,92.7,32.7,29.82,North,10,0.0,2.7,12,0.00,,---,0.00,VWS V14.01,2013-09-13 20:45:00,
2013-09-13 14:50:00,91.4,31.7,29.82,North,1,0.0,4.0,12,0.00,,---,0.00,VWS V14.01,2013-09-13 20:50:00,
2013-09-13 14:55:00,90.9,31.3,29.82,NNE,18,0.0,4.0,12,0.00,,---,0.00,VWS V14.01,2013-09-13 20:55:00,
2013-09-13 15:00:00,91.6,31.9,29.82,NNE,29,0.0,0.0,12,0.00,,---,0.00,VWS V14.01,2013-09-13 21:00:00,
2013-09-13 15:05:00,91.9,32.1,29.82,NE,39,2.2,5.4,12,0.00,,---,0.00,VWS V14.01,2013-09-13 21:05:00,
2013-09-13 15:10:00,93.2,31.0,29.82,East,80,4.9,5.4,11,0.00,,---,0.00,VWS V14.01,2013-09-13 21:10:00,
2013-09-13 15:15:00,93.9,31.5,29.82,NE,49,4.0,4.0,11,0.00,,---,0.00,VWS V14.01,2013-09-13 21:15:00,
2013-09-13 15:20:00,93.6,31.2,29.82,ENE,58,2.7,4.0,11,0.00,,---,0.00,VWS V14.01,2013-09-13 21:20:00,
2013-09-13 15:25:00,93.9,31.5,29.82,NE,49,2.7,4.9,11,0.00,,---,0.00,VWS V14.01,2013-09-13 21:25:00,
2013-09-13 15:30:00,94.3,31.8,29.82,NE,46,0.0,0.0,11,0.00,,---,0.00,VWS V14.01,2013-09-13 21:30:00,
2013-09-13 15:35:00,92.7,32.7,29.82,North,7,0.0,3.1,12,0.00,,---,0.00,VWS V14.01,2013-09-13 21:35:00,
2013-09-13 15:40:00,92.3,32.4,29.82,NE,43,3.6,3.6,12,0.00,,---,0.00,VWS V14.01,2013-09-13 21:40:00,
2013-09-13 15:45:00,92.8,32.8,29.82,NE,55,0.0,2.2,12,0.00,,---,0.00,VWS V14.01,2013-09-13 21:45:00,
2013-09-13 15:50:00,93.0,33.0,29.82,East,92,3.6,5.8,12,0.00,,---,0.00,VWS V14.01,2013-09-13 21:50:00,
2013-09-13 15:55:00,91.4,31.7,29.82,NE,43,2.2,5.8,12,0.00,,---,0.00,VWS V14.01,2013-09-13 21:55:00,
2013-09-13 16:00:00,88.0,31.0,29.82,NNE,12,0.0,0.0,13,0.00,,---,0.00,VWS V14.01,2013-09-13 22:00:00,
2013-09-13 16:05:00,86.5,29.9,29.82,ENE,68,0.0,2.7,13,0.00,,---,0.00,VWS V14.01,2013-09-13 22:05:00,
2013-09-13 16:10:00,86.2,29.6,29.82,ENE,63,3.1,3.1,13,0.00,,---,0.00,VWS V14.01,2013-09-13 22:10:00,
2013-09-13 16:15:00,86.0,29.5,29.82,ENE,63,0.0,0.0,13,0.00,,---,0.00,VWS V14.01,2013-09-13 22:15:00,
2013-09-13 16:20:00,85.3,28.9,29.82,ENE,63,0.0,0.0,13,0.00,,---,0.00,VWS V14.01,2013-09-13 22:20:00,
2013-09-13 16:25:00,84.7,33.6,29.82,ENE,63,0.0,0.0,16,0.00,,---,0.00,VWS V14.01,2013-09-13 22:25:00,
2013-09-13 16:30:00,84.4,33.3,29.82,ENE,63,0.0,0.0,16,0.00,,---,0.00,VWS V14.01,2013-09-13 22:30:00,
2013-09-13 16:35:00,84.0,33.0,29.82,ENE,63,0.0,0.0,16,0.00,,---,0.00,VWS V14.01,2013-09-13 22:35:00,
2013-09-13 16:40:00,84.0,33.0,29.79,ENE,63,0.0,0.0,16,0.00,,---,0.00,VWS V14.01,2013-09-13 22:40:00,
2013-09-13 16:45:00,84.2,33.2,29.79,ENE,63,0.0,0.0,16,0.00,,---,0.00,VWS V14.01,2013-09-13 22:45:00,
2013-09-13 16:50:00,84.2,33.2,29.79,ENE,63,0.0,0.0,16,0.00,,---,0.00,VWS V14.01,2013-09-13 22:50:00,
2013-09-13 16:55:00,84.2,33.2,29.79,ENE,63,0.0,0.0,16,0.00,,---,0.00,VWS V14.01,2013-09-13 22:55:00,
2013-09-13 17:00:00,83.8,32.9,29.79,ENE,63,0.0,0.0,16,0.00,,---,0.00,VWS V14.01,2013-09-13 23:00:00,
2013-09-13 17:05:00,83.5,32.6,29.79,ENE,63,0.0,0.0,16,0.00,,---,0.00,VWS V14.01,2013-09-13 23:05:00,
2013-09-13 17:10:00,83.1,32.3,29.82,ENE,63,0.0,0.0,16,0.00,,---,0.00,VWS V14.01,2013-09-13 23:10:00,
2013-09-13 17:15:00,82.9,32.2,29.82,ENE,63,0.0,0.0,16,0.00,,---,0.00,VWS V14.01,2013-09-13 23:15:00,
2013-09-13 17:20:00,82.4,31.8,29.82,ENE,63,0.0,0.0,16,0.00,,---,0.00,VWS V14.01,2013-09-13 23:20:00,
2013-09-13 17:25:00,81.9,32.8,29.79,ENE,63,0.0,0.0,17,0.00,,---,0.00,VWS V14.01,2013-09-13 23:25:00,
2013-09-13 17:30:00,81.3,32.4,29.79,NW,305,0.0,0.0,17,0.00,,---,0.00,VWS V14.01,2013-09-13 23:30:00,
2013-09-13 17:35:00,80.6,35.9,29.79,SE,136,0.0,0.0,20,0.00,,---,0.00,VWS V14.01,2013-09-13 23:35:00,
2013-09-13 17:40:00,79.2,35.9,29.79,SSE,148,3.1,3.1,21,0.00,,---,0.00,VWS V14.01,2013-09-13 23:40:00,
2013-09-13 17:45:00,78.6,35.5,29.79,WSW,241,0.0,0.0,21,0.00,,---,0.00,VWS V14.01,2013-09-13 23:45:00,
2013-09-13 17:50:00,78.1,35.0,29.79,WSW,241,0.0,0.0,21,0.00,,---,0.00,VWS V14.01,2013-09-13 23:50:00,
2013-09-13 17:55:00,77.4,35.6,29.79,South,183,0.0,0.0,22,0.00,,---,0.00,VWS V14.01,2013-09-13 23:55:00,
2013-09-13 18:00:00,77.0,35.3,29.79,SW,224,0.0,0.0,22,0.00,,---,0.00,VWS V14.01,2013-09-14 00:00:00,
2013-09-13 18:05:00,76.8,35.1,29.79,SW,224,0.0,0.0,22,0.00,,---,0.00,VWS V14.01,2013-09-14 00:05:00,
2013-09-13 18:10:00,76.5,37.0,29.82,SW,224,0.0,0.0,24,0.00,,---,0.00,VWS V14.01,2013-09-14 00:10:00,
2013-09-13 18:15:00,76.3,38.9,29.82,SW,224,0.0,0.0,26,0.00,,---,0.00,VWS V14.01,2013-09-14 00:15:00,
2013-09-13 18:20:00,76.1,41.6,29.82,SW,224,0.0,0.0,29,0.00,,---,0.00,VWS V14.01,2013-09-14 00:20:00,
2013-09-13 18:25:00,75.9,42.3,29.79,SW,224,0.0,0.0,30,0.00,,---,0.00,VWS V14.01,2013-09-14 00:25:00,
2013-09-13 18:30:00,75.6,42.8,29.79,SW,224,0.0,0.0,31,0.00,,---,0.00,VWS V14.01,2013-09-14 00:30:00,
2013-09-13 18:35:00,75.6,40.2,29.79,SW,224,0.0,0.0,28,0.00,,---,0.00,VWS V14.01,2013-09-14 00:35:00,
2013-09-13 18:40:00,75.6,39.3,29.82,WSW,241,0.0,0.0,27,0.00,,---,0.00,VWS V14.01,2013-09-14 00:40:00,
2013-09-13 18:45:00,75.6,39.3,29.82,WSW,241,0.0,0.0,27,0.00,,---,0.00,VWS V14.01,2013-09-14 00:45:00,
2013-09-13 18:50:00,75.6,38.3,29.82,WSW,241,0.0,0.0,26,0.00,,---,0.00,VWS V14.01,2013-09-14 00:50:00,
2013-09-13 18:55:00,75.4,38.2,29.82,WSW,241,0.0,0.0,26,0.00,,---,0.00,VWS V14.01,2013-09-14 00:55:00,
2013-09-13 19:00:00,75.0,38.8,29.82,East,90,3.6,3.6,27,0.00,,---,0.00,VWS V14.01,2013-09-14 01:00:00,
2013-09-13 19:05:00,74.3,41.7,29.82,SE,127,2.7,3.6,31,0.00,,---,0.00,VWS V14.01,2013-09-14 01:05:00,
2013-09-13 19:10:00,73.9,42.2,29.82,SE,142,3.6,4.0,32,0.00,,---,0.00,VWS V14.01,2013-09-14 01:10:00,
2013-09-13 19:15:00,74.1,39.9,29.82,SSE,166,4.9,4.9,29,0.00,,---,0.00,VWS V14.01,2013-09-14 01:15:00,
2013-09-13 19:20:00,74.8,36.7,29.82,SSE,166,2.7,8.1,25,0.00,,---,0.00,VWS V14.01,2013-09-14 01:20:00,
2013-09-13 19:25:00,74.8,36.7,29.82,South,177,3.6,8.1,25,0.00,,---,0.00,VWS V14.01,2013-09-14 01:25:00,
2013-09-13 19:30:00,74.8,35.7,29.82,SE,124,3.6,3.6,24,0.00,,---,0.00,VWS V14.01,2013-09-14 01:30:00,
2013-09-13 19:35:00,74.3,36.2,29.82,SE,125,7.6,7.6,25,0.00,,---,0.00,VWS V14.01,2013-09-14 01:35:00,
2013-09-13 19:40:00,73.8,34.8,29.82,SSE,153,4.0,7.6,24,0.00,,---,0.00,VWS V14.01,2013-09-14 01:40:00,
2013-09-13 19:45:00,73.6,34.6,29.82,South,171,3.1,7.6,24,0.00,,---,0.00,VWS V14.01,2013-09-14 01:45:00,
2013-09-13 19:50:00,73.4,34.5,29.82,SSW,196,3.1,7.6,24,0.00,,---,0.00,VWS V14.01,2013-09-14 01:50:00,
2013-09-13 19:55:00,73.6,34.6,29.82,SSW,207,3.1,7.6,24,0.00,,---,0.00,VWS V14.01,2013-09-14 01:55:00,
2013-09-13 20:00:00,73.8,34.8,29.82,SSE,156,3.1,7.6,24,0.00,,---,0.00,VWS V14.01,2013-09-14 02:00:00,
2013-09-13 20:05:00,73.6,34.6,29.82,SSW,210,3.6,5.4,24,0.00,,---,0.00,VWS V14.01,2013-09-14 02:05:00,
2013-09-13 20:10:00,73.4,34.5,29.82,SSE,161,0.0,5.4,24,0.00,,---,0.00,VWS V14.01,2013-09-14 02:10:00,
2013-09-13 20:15:00,72.7,34.9,29.82,SSE,157,0.0,5.4,25,0.00,,---,0.00,VWS V14.01,2013-09-14 02:15:00,
2013-09-13 20:20:00,72.1,34.4,29.82,SSE,167,4.0,4.0,25,0.00,,---,0.00,VWS V14.01,2013-09-14 02:20:00,
2013-09-13 20:25:00,72.3,34.6,29.85,South,188,5.8,8.7,25,0.00,,---,0.00,VWS V14.01,2013-09-14 02:25:00,
2013-09-13 20:30:00,72.3,33.5,29.85,South,181,2.7,8.7,24,0.00,,---,0.00,VWS V14.01,2013-09-14 02:30:00,
2013-09-13 20:35:00,72.3,33.5,29.85,SSE,166,4.9,6.3,24,0.00,,---,0.00,VWS V14.01,2013-09-14 02:35:00,
2013-09-13 20:40:00,72.1,33.4,29.85,SW,231,3.1,6.3,24,0.00,,---,0.00,VWS V14.01,2013-09-14 02:40:00,
2013-09-13 20:45:00,72.0,33.2,29.85,East,100,4.0,6.3,24,0.00,,---,0.00,VWS V14.01,2013-09-14 02:45:00,
2013-09-13 20:50:00,71.6,32.9,29.85,South,175,2.7,5.8,24,0.00,,---,0.00,VWS V14.01,2013-09-14 02:50:00,
2013-09-13 20:55:00,71.4,33.8,29.85,South,181,4.0,5.8,25,0.00,,---,0.00,VWS V14.01,2013-09-14 02:55:00,
2013-09-13 21:00:00,71.4,33.8,29.85,SE,135,2.2,5.8,25,0.00,,---,0.00,VWS V14.01,2013-09-14 03:00:00,
2013-09-13 21:05:00,71.2,33.6,29.85,SE,146,3.1,5.8,25,0.00,,---,0.00,VWS V14.01,2013-09-14 03:05:00,
2013-09-13 21:10:00,70.7,33.2,29.88,SE,136,4.0,7.6,25,0.00,,---,0.00,VWS V14.01,2013-09-14 03:10:00,
2013-09-13 21:14:00,70.7,33.2,29.88,SSW,199,5.8,13.2,25,0.00,,---,0.00,VWS V14.01,2013-09-14 03:14:00,
2013-09-13 21:19:00,70.7,33.2,29.88,South,177,8.1,8.1,25,0.00,,---,0.00,VWS V14.01,2013-09-14 03:19:00,
2013-09-13 21:24:00,70.7,33.2,29.88,SSE,162,3.6,8.7,25,0.00,,---,0.00,VWS V14.01,2013-09-14 03:24:00,
2013-09-13 21:29:00,70.7,33.2,29.88,SSW,199,5.8,8.7,25,0.00,,---,0.00,VWS V14.01,2013-09-14 03:29:00,
2013-09-13 21:34:00,70.5,33.0,29.88,SSW,199,4.9,10.1,25,0.00,,---,0.00,VWS V14.01,2013-09-14 03:34:00,
2013-09-13 21:39:00,70.5,33.0,29.88,SE,136,2.7,10.1,25,0.00,,---,0.00,VWS V14.01,2013-09-14 03:39:00,
2013-09-13 21:44:00,70.2,33.7,29.88,SSW,202,4.9,10.1,26,0.00,,---,0.00,VWS V14.01,2013-09-14 03:44:00,
2013-09-13 21:49:00,70.2,33.7,29.88,SSE,168,5.8,10.1,26,0.00,,---,0.00,VWS V14.01,2013-09-14 03:49:00,
2013-09-13 21:54:00,70.5,34.0,29.91,SSE,153,6.7,11.0,26,0.00,,---,0.00,VWS V14.01,2013-09-14 03:54:00,
2013-09-13 21:59:00,70.7,34.2,29.91,South,180,8.1,11.0,26,0.00,,---,0.00,VWS V14.01,2013-09-14 03:59:00,
2013-09-13 22:01:00,70.7,34.2,29.91,South,184,8.7,11.0,26,0.00,,---,0.00,VWS V14.01,2013-09-14 04:01:00,
2013-09-13 22:02:00,70.7,34.2,29.91,South,185,10.1,11.0,26,0.00,,---,0.00,VWS V14.01,2013-09-14 04:02:00,
2013-09-13 22:07:00,70.3,33.9,29.91,SSW,213,10.5,13.2,26,0.00,,---,0.00,VWS V14.01,2013-09-14 04:07:00,
2013-09-13 22:12:00,69.8,34.3,29.91,South,190,5.4,15.4,27,0.00,,---,0.00,VWS V14.01,2013-09-14 04:12:00,
2013-09-13 22:17:00,69.4,35.0,29.91,SSW,205,7.2,10.5,28,0.00,,---,0.00,VWS V14.01,2013-09-14 04:17:00,
2013-09-13 22:22:00,69.3,35.7,29.88,SSW,199,5.4,10.5,29,0.00,,---,0.00,VWS V14.01,2013-09-14 04:22:00,
2013-09-13 22:27:00,68.9,35.4,29.88,WSW,239,9.6,10.5,29,0.00,,---,0.00,VWS V14.01,2013-09-14 04:27:00,
2013-09-13 22:32:00,69.1,34.6,29.88,SW,223,2.7,7.6,28,0.00,,---,0.00,VWS V14.01,2013-09-14 04:32:00,
2013-09-13 22:37:00,69.3,33.9,29.88,SW,228,0.0,7.6,27,0.00,,---,0.00,VWS V14.01,2013-09-14 04:37:00,
2013-09-13 22:42:00,69.3,33.9,29.88,East,93,4.0,7.6,27,0.00,,---,0.00,VWS V14.01,2013-09-14 04:42:00,
2013-09-13 22:47:00,68.4,37.4,29.88,ESE,110,5.8,7.6,32,0.00,,---,0.00,VWS V14.01,2013-09-14 04:47:00,
2013-09-13 22:52:00,67.3,38.0,29.88,ESE,115,5.4,7.6,34,0.00,,---,0.00,VWS V14.01,2013-09-14 04:52:00,
2013-09-13 22:57:00,66.4,37.9,29.88,ESE,122,3.1,7.6,35,0.00,,---,0.00,VWS V14.01,2013-09-14 04:57:00,
2013-09-13 23:02:00,65.8,38.9,29.88,South,170,2.7,5.4,37,0.00,,---,0.00,VWS V14.01,2013-09-14 05:02:00,
2013-09-13 23:07:00,65.8,38.9,29.88,SSE,161,5.8,6.7,37,0.00,,---,0.00,VWS V14.01,2013-09-14 05:07:00,
2013-09-13 23:12:00,65.8,38.9,29.88,SSE,164,2.2,6.7,37,0.00,,---,0.00,VWS V14.01,2013-09-14 05:12:00,
2013-09-13 23:17:00,65.5,39.2,29.88,ESE,119,3.1,7.2,38,0.00,,---,0.00,VWS V14.01,2013-09-14 05:17:00,
2013-09-13 23:22:00,65.3,39.1,29.91,SE,146,2.2,7.2,38,0.00,,---,0.00,VWS V14.01,2013-09-14 05:22:00,
2013-09-13 23:27:00,65.1,39.6,29.91,SSE,164,4.0,7.2,39,0.00,,---,0.00,VWS V14.01,2013-09-14 05:27:00,
2013-09-13 23:32:00,64.9,39.4,29.91,SSW,205,4.0,4.0,39,0.00,,---,0.00,VWS V14.01,2013-09-14 05:32:00,
2013-09-13 23:37:00,64.9,39.4,29.91,South,177,4.0,5.8,39,0.00,,---,0.00,VWS V14.01,2013-09-14 05:37:00,
2013-09-13 23:42:00,64.8,39.2,29.91,SE,143,2.7,5.8,39,0.00,,---,0.00,VWS V14.01,2013-09-14 05:42:00,
2013-09-13 23:47:00,64.8,39.2,29.91,SSE,156,2.7,5.4,39,0.00,,---,0.00,VWS V14.01,2013-09-14 05:47:00,
2013-09-13 23:52:00,64.6,39.1,29.88,SSE,159,0.0,5.8,39,0.00,,---,0.00,VWS V14.01,2013-09-14 05:52:00,
2013-09-13 23:57:00,64.4,38.9,29.88,SE,126,2.7,5.8,39,0.00,,---,0.00,VWS V14.01,2013-09-14 05:57:00,